Погода в Подвислове

Россия / Рязанская область     53°49′27″N   40°05′25″E
темп.,
°C
ветер,
м/с
пор.,
м/с
влажн.,
%
обл.,
%
осадки,
мм/ч
давл.,
гПа
погр.,
м
10 мая, пн
пн1000:00+6ссз7158196 0.1 1018978
03:00+3ссз5129372 0.1 1020358
06:00+5с71580100 0.0 1022722
09:00+8с9146698 0.0 10221007
12:00+10ссв81260100 0.0 10231114
15:00+10ссв61369100 0.0 1023874
18:00+11св81476100 0.0 1023782
21:00+9ссв8178296 0.0 1023536
11 мая, вт
вт1100:00+8ссв81785100 0.0 1022413
03:00+8ссв81791100 0.1 1022404
06:00+9ссв8178960 0.1 1022449
09:00+14св91478100 0.1 1022512
12:00+18всв71167100 0.0 10221159
15:00+14ююв5891100 2.2 1024403
18:00+13юв368417 0.6 1026264
21:00+9вюв33861 0.6 102728
12 мая, ср
ср1200:00+8ююз1185100 0.0 102710
03:00+8св2284100 0.0 102714
06:00+8с3796100 0.6 1025203
09:00+9с2797100 3.4 1024422
12:00+12всв61595100 1.2 1020747
15:00+12юв81394100 3.0 1020863
18:00+12ю46805 0.7 1022635
21:00+8в33915 0.7 102328
13 мая, чт
чт1300:00+8в369495 0.0 1022110
03:00+8в3896100 0.0 1021145
06:00+12вюв3997100 0.3 1020258
09:00+12вюв2599100 7.5 1019186
12:00+17юв348281 1.2 1019681
15:00+19ююв337493 1.9 1019818
18:00+19вюв347818 0.3 1019397
21:00+14вюв229212 0.3 101923
14 мая, пт
пт1400:00+14вюв2294100 0.0 101920
03:00+13вюв229497 0.0 101923
06:00+14вюв359355 0.0 1019130
09:00+19юв46783 0.0 1018443
12:00+23ююв686256 0.0 10181190
15:00+24ююв5964100 0.0 10171600
18:00+23юв5117461 0.0 1015516
21:00+18юв41288100 0.0 1015221